Anoka County, MN

12:28 PM CDT on August 18, 2017 (GMT -0500)
Anoka County / Blaine Airport

Weather History for KANE - April, 2013

Change the Weather History Date:

Sunday, April 21, 2013

  Actual Average Record
Temperature  
Mean Temperature 40 °F -  
Max Temperature 48 °F 57 °F 82 °F (2007)
Min Temperature 33 °F 36 °F 28 °F (2011)
Degree Days  
Heating Degree Days 24    
Moisture  
Dew Point 34 °F    
Average Humidity 82    
Maximum Humidity 100    
Minimum Humidity 52    
Precipitation  
Precipitation 0.00 in - - ()
Sea Level Pressure  
Sea Level Pressure 30.19 in    
Wind  
Wind Speed 7 mph (SE)    
Max Wind Speed 18 mph    
Max Gust Speed 28 mph    
Visibility 8 miles    
Events Rain , Snow    
Averages and records for this station are not official NWS values.
T = Trace of Precipitation, MM = Missing Value Source: NWS Daily Summary

Daily Weather History Graph

Daily Weather History Graph

Search for Another Location

Airport or City:

Trip Planner

Search our weather history database for the weather conditions in past years. The results will help you decide how hot, cold, wet, or windy it might be!

Date:

Astronomy

Apr. 21, 2013 Rise Set
Actual Time 6:17 AM CDT 8:06 PM CDT
Civil Twilight 5:45 AM CDT 8:38 PM CDT
Nautical Twilight 5:07 AM CDT 9:16 PM CDT
Astronomical Twilight 4:25 AM CDT 9:58 PM CDT
Moon 3:41 PM CDT (4/21) 3:51 AM CDT (4/21)
Length of Visible Light 14h 52m
Length of Day
13h 49m
Waxing Gibbous, 80% of the Moon is Illuminated
Apr 21
Waxing Gibbous
Apr 25
Full
May 2
Last Quarter
May 9
New
May 17
First Quarter

Hourly Weather History & Observations

Time (CDT) Temp. Windchill Dew Point Humidity Pressure Visibility Wind Dir Wind Speed Gust Speed Precip Events Conditions
12:14 AM 33.8 °F 29.6 °F 19.4 °F 56% 30.30 in 10.0 mi ESE 4.6 mph - N/A   Overcast
12:34 AM 33.8 °F 30.8 °F 19.4 °F 56% 30.30 in 10.0 mi East 3.5 mph - N/A   Overcast
12:53 AM 33.8 °F 29.6 °F 19.4 °F 56% 30.30 in 10.0 mi East 4.6 mph - N/A   Overcast
1:14 AM 33.8 °F 29.6 °F 19.4 °F 56% 30.29 in 10.0 mi SE 4.6 mph - N/A   Overcast
1:34 AM 35.6 °F 30.7 °F 19.4 °F 52% 30.30 in 10.0 mi SE 5.8 mph - N/A   Overcast
1:53 AM 35.6 °F 30.7 °F 19.4 °F 52% 30.30 in 10.0 mi SSE 5.8 mph - N/A   Overcast
2:14 AM 35.6 °F 32.8 °F 21.2 °F 56% 30.29 in 10.0 mi ESE 3.5 mph - N/A   Overcast
2:34 AM 35.6 °F - 23.0 °F 60% 30.29 in 10.0 mi Calm Calm - N/A   Overcast
2:54 AM 35.6 °F - 21.2 °F 56% 30.29 in 10.0 mi Calm Calm - N/A   Overcast
3:14 AM 35.6 °F - 26.6 °F 70% 30.29 in 4.0 mi Calm Calm - N/A Snow Light Snow
3:34 AM 33.8 °F 30.8 °F 28.4 °F 81% 30.29 in 2.5 mi East 3.5 mph - N/A Snow Light Snow
3:54 AM 33.8 °F 28.6 °F 30.2 °F 87% 30.28 in 2.5 mi East 5.8 mph - N/A Snow Light Snow
4:14 AM 33.8 °F 28.6 °F 32.0 °F 93% 30.28 in 2.0 mi East 5.8 mph - N/A Snow Light Snow
4:34 AM 33.8 °F 28.6 °F 32.0 °F 93% 30.27 in 2.0 mi East 5.8 mph - N/A Snow Light Snow
4:54 AM 33.8 °F 27.7 °F 32.0 °F 93% 30.27 in 3.0 mi East 6.9 mph - N/A Snow Light Snow
5:14 AM 33.8 °F 29.6 °F 32.0 °F 93% 30.27 in 4.0 mi ESE 4.6 mph - N/A Snow Light Snow
5:34 AM 33.8 °F 27.0 °F 33.8 °F 100% 30.26 in 2.0 mi East 8.1 mph - N/A Snow Light Snow
5:54 AM 33.8 °F 26.4 °F 33.8 °F 100% 30.25 in 5.0 mi East 9.2 mph - N/A Snow Light Snow
6:13 AM 35.6 °F 28.0 °F 33.8 °F 93% 30.25 in 10.0 mi ESE 10.4 mph - N/A   Overcast
6:34 AM 35.6 °F 28.0 °F 33.8 °F 93% 30.25 in 10.0 mi ESE 10.4 mph 16.1 mph N/A   Overcast
6:45 AM 35.6 °F 28.0 °F 33.8 °F 93% 30.25 in 10.0 mi ESE 10.4 mph 16.1 mph N/A   Overcast
6:54 AM 35.6 °F 27.5 °F 33.8 °F 93% 30.25 in 10.0 mi ESE 11.5 mph 18.4 mph N/A   Overcast
7:50 AM 35.6 °F 26.2 °F 33.8 °F 93% 30.24 in 10.0 mi ESE 15.0 mph 23.0 mph N/A   Overcast
9:45 AM 37.4 °F 27.8 °F 35.6 °F 93% 30.20 in 10.0 mi SE 17.3 mph 25.3 mph N/A   Overcast
10:45 AM 37.4 °F 27.8 °F 35.6 °F 93% 30.19 in 10.0 mi SE 17.3 mph 23.0 mph N/A   Overcast
11:45 AM 41.0 °F 32.2 °F 35.6 °F 81% 30.17 in 10.0 mi SE 18.4 mph 27.6 mph N/A   Overcast
12:50 PM 42.8 °F 34.8 °F 35.6 °F 76% 30.13 in 10.0 mi SE 17.3 mph 24.2 mph N/A   Overcast
1:50 PM 44.6 °F 37.2 °F 37.4 °F 76% 30.10 in 10.0 mi SE 17.3 mph 24.2 mph N/A   Overcast
2:45 PM 46.4 °F 39.5 °F 37.4 °F 71% 30.07 in 10.0 mi SSE 17.3 mph 25.3 mph N/A   Overcast
3:55 PM 46.4 °F 39.8 °F 39.2 °F 76% 30.05 in 10.0 mi SE 16.1 mph - N/A   Overcast
4:55 PM 48.2 °F - 42.8 °F 82% 30.02 in 10.0 mi SE 8.1 mph - N/A   Overcast
5:50 PM 46.4 °F 41.1 °F 44.6 °F 93% 30.01 in 5.0 mi SE 11.5 mph - N/A Rain Rain
6:55 PM 46.4 °F 41.9 °F 46.4 °F 100% 30.01 in 5.0 mi SSE 9.2 mph - N/A Rain Rain
7:45 PM 48.2 °F - 46.4 °F 93% 30.02 in 7.0 mi South 12.7 mph - N/A Rain Light Rain
9:14 PM 48.2 °F - 46.4 °F 93% 30.06 in 10.0 mi WSW 6.9 mph - N/A   Overcast
9:34 PM 46.4 °F 42.4 °F 44.6 °F 93% 30.07 in 10.0 mi WSW 8.1 mph - N/A   Overcast
9:54 PM 46.4 °F 40.4 °F 42.8 °F 87% 30.08 in 10.0 mi West 13.8 mph - N/A   Overcast
10:14 PM 44.6 °F 39.2 °F 42.8 °F 93% 30.10 in 10.0 mi West 10.4 mph - N/A   Overcast
10:34 PM 42.8 °F 37.0 °F 41.0 °F 93% 30.10 in 10.0 mi West 10.4 mph - N/A   Overcast
10:54 PM 42.8 °F 36.6 °F 39.2 °F 87% 30.11 in 10.0 mi West 11.5 mph - N/A   Overcast
11:14 PM 42.8 °F 38.0 °F 39.2 °F 87% 30.12 in 10.0 mi West 8.1 mph - N/A   Overcast
11:34 PM 41.0 °F 37.1 °F 39.2 °F 93% 30.12 in 10.0 mi West 5.8 mph - N/A   Overcast
11:54 PM 41.0 °F 36.4 °F 39.2 °F 93% 30.12 in 10.0 mi West 6.9 mph - N/A   Overcast